"Pseudo-MPEC" for P110DoQ

Created 2020 May 27 22:07:09 UT using Find_Orb

Click here for an explanation of pseudo-MPECs

 
 Astrometry: 
     P110DoQ  C2020 05 20WRjh=HAstrometryHBVi`tLmdFlrM')^KUkXsR)c[,QS.SudC59IF51
     P110DoQ  C2020 05 20)#puuCW$\(Y'DlPredacted;u91Dd1x9clickOhereANhj1k:a@8F51
     P110DoQ  C2020 05 20xt2!xXU(SLANe\9cui^$WO5#CPC[nvfor/H.dexplanationf@(sF51
     P110DoQ ^C2020 05 21.57208919 38 38.230-39 51 14.22   ~5M4M 20.81GVNEOCP568
     P110DoQ ^C2020 05 21.57303719 38 38.318-39 51 14.50   ~5M4M 20.78GVNEOCP568
     P110DoQ ^C2020 05 21.57398719 38 38.408-39 51 14.76   ~5M4M 20.90GVNEOCP568

Station data:
(568) Mauna Kea  (N19.826116 W155.472200)  US/Hawaii.
(F51) Pan-STARRS 1, Haleakala  (N20.707235 W156.255910)  US/Hawaii.
   Observers N. Primak, A. Schultz, S. Watters, J. Thiel, T. Goggia. Measurer
   PS1 Science Consortium. 1.8-m Ritchey-Chrétien + CCD.

Orbital elements:  P110DoQ
   Perihelion 2020 May 4.753950 +/- 49.3 TT = 18:05:41 (JD 2458974.253950)
Epoch 2020 May 21.0 TT = JDT 2458990.5   Earth MOID: 0.4135   Ma: 0.0647
M   4.45096129 +/- 26               (J2000 ecliptic)          AutoNEOCP
n   0.27397190 +/- 0.229            Peri.  249.84551 +/- 110
a   2.34782304 +/- 1.31             Node   355.15560 +/- 28
e   0.4019213 +/- 0.245             Incl.    6.87299 +/- 4.0
P   3.60                   H 20.2   G  0.15   U 11.8  SR
q 1.40418285 +/- 0.446    Q 3.29146323 +/- 36.1
From 6 observations 2020 May 20-21 (25.0 hr); mean residual 0".12
Residuals in arcseconds: 
200520 F51  .11-  .07-    200520 F51  .23+  .24+    200521 568  .01-  .01-    
200520 F51  .12-  .16-    200521 568  .03-  .01-    200521 568  .04+  .02+    

Ephemerides (geocentric):
Date (UTC) HH   RA              Dec         delta   r     elong  mag " sig PA
---- -- -- --  -------------   -----------  ------ ------ -----  --- ---- ---
2020 05 27 22  19 47 52.111   -40 19 46.35  .52417 1.4202 132.3 21.0  600  13
2020 05 27 23  19 47 55.245   -40 19 56.67  .52408 1.4202 132.3 21.0  608  13
2020 05 28 00  19 47 58.372   -40 20 06.98  .52399 1.4203 132.4 21.0  616  13
2020 05 28 01  19 48 01.493   -40 20 17.27  .52391 1.4204 132.4 21.0  623  13
2020 05 28 02  19 48 04.607   -40 20 27.55  .52382 1.4204 132.4 21.0  631  13
2020 05 28 03  19 48 07.714   -40 20 37.82  .52374 1.4205 132.4 21.0  639  13
2020 05 28 04  19 48 10.814   -40 20 48.07  .52365 1.4205 132.5 21.0  648  13
2020 05 28 05  19 48 13.908   -40 20 58.30  .52356 1.4206 132.5 21.0  656  13
2020 05 28 06  19 48 16.995   -40 21 08.53  .52348 1.4207 132.5 21.0  664  13
2020 05 28 07  19 48 20.075   -40 21 18.74  .52339 1.4207 132.5 21.0  672  13
2020 05 28 08  19 48 23.148   -40 21 28.93  .52331 1.4208 132.6 21.0  680  13
2020 05 28 09  19 48 26.215   -40 21 39.11  .52322 1.4208 132.6 21.0  689  13
2020 05 28 10  19 48 29.275   -40 21 49.28  .52314 1.4209 132.6 21.0  697  13
2020 05 28 11  19 48 32.328   -40 21 59.44  .52305 1.4209 132.6 21.0  706  13
2020 05 28 12  19 48 35.375   -40 22 09.58  .52297 1.4210 132.7 21.0  714  13
2020 05 28 13  19 48 38.415   -40 22 19.70  .52288 1.4211 132.7 20.9  723  13
2020 05 28 14  19 48 41.448   -40 22 29.81  .52280 1.4211 132.7 20.9  731  13
2020 05 28 15  19 48 44.474   -40 22 39.91  .52271 1.4212 132.8 20.9  740  13
2020 05 28 16  19 48 47.494   -40 22 50.00  .52263 1.4212 132.8 20.9  749  13
2020 05 28 17  19 48 50.506   -40 23 00.07  .52254 1.4213 132.8 20.9  758  13
2020 05 28 18  19 48 53.512   -40 23 10.12  .52246 1.4214 132.8 20.9  766  13
2020 05 28 19  19 48 56.512   -40 23 20.17  .52238 1.4214 132.9 20.9  775  13
2020 05 28 20  19 48 59.504   -40 23 30.19  .52229 1.4215 132.9 20.9  784  13
2020 05 28 21  19 49 02.490   -40 23 40.21  .52221 1.4215 132.9 20.9  793  13
2020 05 28 22  19 49 05.469   -40 23 50.21  .52213 1.4216 132.9 20.9  802  13
2020 05 28 23  19 49 08.441   -40 24 00.20  .52204 1.4216 133.0 20.9  812  13
2020 05 29 00  19 49 11.407   -40 24 10.17  .52196 1.4217 133.0 20.9  821  13
2020 05 29 01  19 49 14.366   -40 24 20.13  .52188 1.4218 133.0 20.9  830  13
2020 05 29 02  19 49 17.318   -40 24 30.07  .52179 1.4218 133.0 20.9  840  13
2020 05 29 03  19 49 20.263   -40 24 40.00  .52171 1.4219 133.1 20.9  849  13
2020 05 29 04  19 49 23.201   -40 24 49.91  .52163 1.4219 133.1 20.9  858  13
2020 05 29 05  19 49 26.133   -40 24 59.82  .52155 1.4220 133.1 20.9  868  13
2020 05 29 06  19 49 29.058   -40 25 09.70  .52146 1.4221 133.1 20.9  878  13
2020 05 29 07  19 49 31.976   -40 25 19.58  .52138 1.4221 133.2 20.9  887  13
2020 05 29 08  19 49 34.887   -40 25 29.44  .52130 1.4222 133.2 20.9  897  13
2020 05 29 09  19 49 37.792   -40 25 39.28  .52122 1.4222 133.2 20.9  907  13
2020 05 29 10  19 49 40.690   -40 25 49.11  .52114 1.4223 133.2 20.9  917  13
2020 05 29 11  19 49 43.581   -40 25 58.93  .52105 1.4224 133.3 20.9  926  13
2020 05 29 12  19 49 46.465   -40 26 08.73  .52097 1.4224 133.3 20.9  936  13
2020 05 29 13  19 49 49.342   -40 26 18.52  .52089 1.4225 133.3 20.9  946  13
2020 05 29 14  19 49 52.213   -40 26 28.29  .52081 1.4226 133.4 20.9  956  13
2020 05 29 15  19 49 55.077   -40 26 38.05  .52073 1.4226 133.4 20.9  967  13
2020 05 29 16  19 49 57.934   -40 26 47.80  .52065 1.4227 133.4 20.9  977  13
2020 05 29 17  19 50 00.784   -40 26 57.53  .52057 1.4227 133.4 20.9  987  13
2020 05 29 18  19 50 03.628   -40 27 07.24  .52049 1.4228 133.5 20.9  997  13
2020 05 29 19  19 50 06.464   -40 27 16.94  .52041 1.4229 133.5 20.9 1008  13
2020 05 29 20  19 50 09.294   -40 27 26.63  .52033 1.4229 133.5 20.9 1018  13
2020 05 29 21  19 50 12.117   -40 27 36.31  .52025 1.4230 133.5 20.9 1029  13